2024-247AE (62405 NORAD) Tracking and Keplerian Element Data

This shows tracking and keplerian element data for the satellite.

Feedback or suggestion? Click here.




ElementValue
Catalog62405
Name2024-247AE
Epoch Orbit690
Epoch Day34.93848025
Epoch Year2025
RAAN120.7725
Inclination44.9906
Eccentricity0.00048
Argument of Perigee263.1552
Mean Anonmoly96.8783
Mean Motion15.21828306
Decay Rate0.00024914
L11 62405U 24247AE 25034.93848025 .00024914 00000+0 10853-2 0 9997
L22 62405 44.9906 120.7725 0004800 263.1552 96.8783 15.21828306 6903



Live tracking and technical data element details for 2024-247AE (NORAD 62405). 2024-247AE can be tracked NOW for your location showing map with azimuth and elevation plus other details from your city location.







IsCatalogInMostPopularTable: catalog: 62405, numindb: 10
Update: records affected: 1



GetName: 62405 2024-247AE

Hit Count: updated at: Sun, 18 May 2025 22:24:34 GMT